Location: Capannuccia
(43.7000°N, 11.3000°E)
Time: 10:25:42
(UTC+00:00)

X-37B - Pass Details

Date: 31 July 2021
Orbit: 381 x 393 km, 45.0° (Epoch: 29 August)

Event Time Altitude Azimuth Distance (km) Brightness Sun altitude
Exits shadow 02:55:13 11° 187° (S) 1,349 2.9 -11.1°
Maximum altitude 02:57:13 17° 146° (SE) 1,048 2.7 -10.8°
Drops below altitude 10° 02:59:22 10° 102° (ESE) 1,396 4.0 -10.5°
Sets 03:01:53 0° 82° (E) 2,253 5.6 -10.1°
